Flag for U.S.A. Weather past 2 weeks in Stillwater, Minnesota, U.S.A.

Now
73 °F

Passing clouds.


Feels Like: 71 °F
Forecast: 69 / 85 °F
Wind: 8 mph from South

Location: St. Paul Downtown Holman Field

Current Time: Sep 1, 2015 at 1:49:49 AM

Latest Report: Sep 1, 2015 at 12:53 AM


Visibility: 7 mi

Pressure: 29.90 "Hg

Humidity: 90%

Dew point: 70 °F

Location of StillwaterLocation

Historic Weather in Stillwater — Graph

°F

Stillwater temperature yesterday

Maximum temperature yesterday: 84 °F (at 3:53 PM)
Minimum temperature yesterday: 63 °F (at 4:53 AM)
Average temperature yesterday: 73 °F

Past Weeks' High & Low Weather Summary

 TemperatureHumidityPressure
High84 °F (Aug 31, 3:53 PM)100% (Aug 19, 12:53 AM)30.20 "Hg (Aug 19, 12:53 AM)
Low51 °F (Aug 26, 6:53 AM)38% (Aug 20, 3:53 PM)29.46 "Hg (Aug 19, 4:53 AM)
Average65 °F76%29.92 "Hg
* Reported Aug 16 11:53 PM — Aug 31 11:53 PM, Stillwater, Weather by CustomWeather, © 2015

Note: Actual official high and low records may vary slightly from our data, if they occured in-between our weather recording intervals... More about our weather records

Advertising

Stillwater weather history for previous 24 hours

 ConditionsComfort  
Time TempWeatherWind HumidityBarometerVisibility
11:53 PM
Mon, Aug 31
73 °FFog.8 mph94%29.89 "Hg6 mi
9:53 PM73 °FPassing clouds.6 mph94%29.89 "Hg7 mi
8:53 PM75 °FPassing clouds.6 mph88%29.88 "Hg8 mi
7:53 PM78 °FSunny.5 mph76%29.87 "Hg9 mi
6:53 PM82 °FSunny.9 mph70%29.86 "Hg10 mi
5:53 PM83 °FSunny.13 mph68%29.86 "Hg10 mi
4:53 PM84 °FPassing clouds.13 mph63%29.86 "Hg10 mi
3:53 PM84 °FPassing clouds.16 mph65%29.86 "Hg10 mi
2:53 PM83 °FScattered clouds.14 mph68%29.88 "Hg10 mi
1:53 PM82 °FPartly sunny.14 mph70%29.90 "Hg10 mi
12:53 PM80 °FPartly sunny.17 mph74%29.90 "Hg10 mi
11:53 AM78 °FScattered clouds.12 mph76%29.92 "Hg8 mi
10:53 AM73 °FOvercast.13 mph88%29.93 "Hg7 mi
9:53 AM71 °FPartly sunny.9 mph87%29.93 "Hg7 mi
9:04 AM70 °FFog.14 mph90%29.94 "Hg6 mi
7:53 AM67 °FFog.8 mph97%29.92 "Hg4 mi
6:53 AM65 °FFog.7 mph100%29.93 "Hg2 mi
5:53 AM64 °FFog.8 mph97%29.91 "Hg5 mi
4:53 AM63 °FFog.9 mph100%29.92 "Hg6 mi
3:53 AM64 °FFog.8 mph97%29.92 "Hg5 mi
2:53 AM64 °FFog.6 mph97%29.92 "Hg6 mi
1:53 AM64 °FFog.7 mph100%29.93 "Hg6 mi
Weather by CustomWeather, © 2015

See weather overviewHow to use our weather pages